Weather History for KUNV - May, 2013

Change the Weather History Date:

Friday, May 10, 2013

  Actual Average Record
Temperature  
Mean Temperature 60 °F -  
Max Temperature 71 °F 65 °F 93 °F (1979)
Min Temperature 48 °F 45 °F 27 °F (1966)
Degree Days  
Heating Degree Days 6    
Growing Degree Days 10 (Base 50)    
Moisture  
Dew Point 56 °F    
Average Humidity 94    
Maximum Humidity 100    
Minimum Humidity 64    
Precipitation  
Precipitation 0.06 in - - ()
Sea Level Pressure  
Sea Level Pressure 29.96 in    
Wind  
Wind Speed 2 mph (SW)    
Max Wind Speed 20 mph    
Max Gust Speed 29 mph    
Visibility 5 miles    
Events Fog , Rain , Thunderstorm    
Averages and records for this station are not official NWS values.
T = Trace of Precipitation, MM = Missing Value Source: NWS Daily Summary

Daily Weather History Graph

Daily Weather History Graph

Search for Another Location

Airport or City:

Trip Planner

Search our weather history database for the weather conditions in past years. The results will help you decide how hot, cold, wet, or windy it might be!

Date:

Astronomy

May. 10, 2013 Rise Set
Actual Time 5:58 AM EDT 8:17 PM EDT
Civil Twilight 5:28 AM EDT 8:48 PM EDT
Nautical Twilight 4:50 AM EDT 9:26 PM EDT
Astronomical Twilight 4:08 AM EDT 10:08 PM EDT
Moon 6:21 AM EDT (5/10) 9:05 PM EDT (5/10)
Length of Visible Light 15h 20m
Length of Day
14h 18m
New Moon, 0% of the Moon is Illuminated
May 10
New Moon
May 18
First Quarter
May 25
Full
May 31
Last Quarter
Jun 8
New

Hourly Weather History & Observations

Time (EDT) Temp. Dew Point Humidity Pressure Visibility Wind Dir Wind Speed Gust Speed Precip Events Conditions
12:15 AM 57.2 °F 57.0 °F 99% 30.00 in 0.8 mi Calm Calm - N/A   Mist
12:35 AM 55.8 °F 55.4 °F 99% 30.01 in 4.0 mi WNW 3.5 mph - N/A   Clear
1:15 AM 55.9 °F 55.8 °F 99% 30.01 in 0.2 mi Calm Calm - N/A Fog Fog
2:15 AM 54.0 °F 53.8 °F 99% 30.01 in 5.0 mi Calm Calm - N/A   Clear
2:35 AM 54.7 °F 54.5 °F 99% 30.01 in 1.5 mi Calm Calm - N/A   Mist
2:55 AM 53.4 °F 53.2 °F 99% 30.01 in 0.5 mi Calm Calm - N/A Fog Fog
3:15 AM 52.7 °F 52.7 °F 100% 30.01 in 0.8 mi Calm Calm - N/A   Mist
3:35 AM 53.1 °F 53.1 °F 100% 30.01 in 0.5 mi Calm Calm - N/A Fog Fog
3:55 AM 52.5 °F 52.5 °F 100% 30.01 in 0.5 mi Calm Calm - N/A Fog Fog
4:15 AM 52.2 °F 52.2 °F 100% 30.00 in 0.5 mi Calm Calm - N/A Fog Fog
4:35 AM 52.2 °F 52.2 °F 100% 30.00 in 0.5 mi Calm Calm - N/A Fog Fog
4:55 AM 51.3 °F 51.3 °F 100% 30.00 in 0.2 mi Calm Calm - N/A Fog Fog
5:15 AM 50.4 °F 50.4 °F 100% 30.00 in 0.2 mi Calm Calm - N/A Fog Fog
5:35 AM 49.8 °F 49.8 °F 100% 30.01 in 0.2 mi Calm Calm - N/A Fog Fog
5:53 AM 48.2 °F 48.2 °F 100% 30.00 in 0.2 mi Calm Calm - N/A Fog Fog
6:30 AM 50.0 °F 50.0 °F 100% 30.02 in 0.5 mi Calm Calm - N/A Fog Fog
6:53 AM 50.0 °F 50.0 °F 100% 30.02 in 0.4 mi Calm Calm - N/A Fog Fog
7:20 AM 50.0 °F 50.0 °F 100% 30.02 in 0.2 mi Calm Calm - N/A Fog Fog
7:53 AM 51.8 °F 51.8 °F 100% 30.01 in 0.8 mi Calm Calm - N/A   Scattered Clouds
8:53 AM 55.4 °F 55.4 °F 100% 30.01 in 1.5 mi Calm Calm - N/A   Scattered Clouds
9:07 AM 53.6 °F 53.6 °F 100% 30.01 in 0.2 mi Calm Calm - N/A Fog Fog
9:20 AM 55.4 °F 55.4 °F 100% 30.00 in 1.5 mi Calm Calm - N/A   Overcast
9:53 AM 57.2 °F 57.2 °F 100% 30.00 in 5.0 mi Calm Calm - N/A   Overcast
10:53 AM 59.0 °F 59.0 °F 100% 30.01 in 7.0 mi WNW 5.8 mph - N/A   Overcast
11:53 AM 60.8 °F 59.0 °F 94% 30.01 in 7.0 mi West 5.8 mph - N/A Rain Light Rain
1:53 PM 62.6 °F 59.0 °F 88% 29.98 in 10.0 mi SSW 4.6 mph - N/A   Overcast
2:53 PM 66.2 °F 60.8 °F 83% 29.96 in 10.0 mi South 4.6 mph - N/A   Overcast
3:53 PM 69.8 °F 59.0 °F 68% 29.91 in 10.0 mi SSW 9.2 mph - N/A   Partly Cloudy
4:58 PM 71.6 °F 59.0 °F 64% 29.90 in 10.0 mi South 6.9 mph - N/A   Partly Cloudy
5:53 PM 69.8 °F 59.0 °F 68% 29.91 in 10.0 mi SW 8.1 mph - N/A Rain Light Rain
6:53 PM 68.0 °F 62.6 °F 83% 29.86 in 10.0 mi Calm Calm - N/A   Mostly Cloudy
7:10 PM 66.2 °F 62.6 °F 88% 29.85 in 10.0 mi SE 3.5 mph - N/A Rain , Thunderstorm Light Thunderstorms and Rain
7:32 PM 66.2 °F 60.8 °F 83% 29.91 in 4.0 mi SW 12.7 mph 18.4 mph N/A Rain , Thunderstorm Heavy Thunderstorms and Rain
7:37 PM 64.4 °F 62.6 °F 94% 29.92 in 1.8 mi West 18.4 mph 25.3 mph N/A Rain , Thunderstorm Heavy Thunderstorms and Rain
7:53 PM 64.4 °F 60.8 °F 88% 29.93 in 4.0 mi WSW 19.6 mph 28.8 mph N/A Rain , Thunderstorm Light Thunderstorms and Rain
8:12 PM 62.6 °F 59.0 °F 88% 29.92 in 10.0 mi SW 10.4 mph 16.1 mph N/A Rain Light Rain
8:53 PM 60.8 °F 59.0 °F 94% 29.90 in 10.0 mi SSW 6.9 mph - N/A Rain Light Rain
9:15 PM 60.8 °F 59.4 °F 95% 29.89 in 10.0 mi South 3.5 mph - N/A   Light Drizzle
9:35 PM 60.6 °F 59.7 °F 97% 29.89 in 10.0 mi South 3.5 mph - N/A   Drizzle
9:55 PM 60.4 °F 59.4 °F 96% 29.90 in 7.0 mi SSW 3.5 mph - 0.01 in Rain Light Rain
10:15 PM 60.3 °F 59.2 °F 96% 29.90 in 7.0 mi SW 4.6 mph - 0.02 in Rain Light Rain
10:35 PM 60.4 °F 59.2 °F 96% 29.88 in 10.0 mi South 3.5 mph - 0.03 in Rain Rain
10:55 PM 60.4 °F 59.0 °F 95% 29.87 in 10.0 mi South 5.8 mph - N/A Rain Rain
11:15 PM 60.4 °F 59.0 °F 95% 29.86 in 10.0 mi South 6.9 mph - 0.01 in Rain Rain
11:35 PM 60.3 °F 58.8 °F 95% 29.86 in 10.0 mi SSW 6.9 mph - 0.02 in Rain Rain
11:55 PM 59.9 °F 58.6 °F 96% 29.85 in 7.0 mi SSW 4.6 mph - N/A Rain Rain